1998-067JE

Last updated on Fri May 20 2016 09:36:28 GMT+0000 (Coordinated Universal Time)

1 41484U 98067JE 16141.18862132 .00032915 00000-0 48053-3 0 9998 2 41484 51.6416 197.6995 0002550 10.9801 52.5783 15.55347003 297

Satellite not in orbit